Tracking 30744 objects as of 23-Jun-2025
HD Live streaming from Space Station
objects crossing your sky now

STARLINK-30470

Track STARLINK-30470 now!
10-day predictions
STARLINK-30470 is classified as:


NORAD ID: 57892
Int'l Code: 2023-146B
Perigee: 565.3 km
Apogee: 567.1 km
Inclination: 43.0 °
Period: 95.8 minutes
Semi major axis: 6937 km
RCS: Unknown
Launch date: September 20, 2023
Source: United States (US)
Launch site: AIR FORCE EASTERN TEST RANGE (AFETR)
Your satellite tracking list
Your tracking list is empty




NASA's NSSDC Master Catalog

Two Line Element Set (TLE):
1 57892U 23146B   25173.36181847  .00001472  00000-0  12399-3 0  9994
2 57892  43.0028 288.1155 0001300 266.0857  93.9837 15.02534073 97902
Source of the keplerian elements: AFSPC